Torna al catalogo

STARLINK-6359

AttivoComunicazioniVLEO
NORAD 57346·PAYLOAD·🇺🇸 United States

Lanciato Jul 16, 2023 da Cape Canaveral Space Force Station

Loading…

Prossimi Passaggi (prossime 24 ore)

TLE

AggiornatoSource: CelesTrak SupGP

Epoca: Sep 14, 2026, 20:49 UTC

1 57346C 23099U   26257.86784722  .00024055  00000+0  87154-3 0  2574
2 57346  43.0026 260.9424 0001309 266.2127 139.4664 15.27556165    15

Traccia STARLINK-6359 in tempo reale con AllMySat

Download on the App Store